• In United Kingdom
  • List of Countries
  • For 7 days
  • Water Temperature
  • Satellite Maps
  • Weather Map
  • Weather Widgets
  • user-avatar
    Login

    Hourly Weather Berat

    Today, 28 July, Friday

    Time Temperature Precipitation Wind Pressure Humidity
    00:00 +20°C° 0 mm 1 mps 741 mmHg 71%
    01:00 +19°C° 0 mm 1 mps 741 mmHg 71%
    02:00 +19°C° 0 mm 1 mps 741 mmHg 71%
    03:00 +19°C° 0 mm 1 mps 741 mmHg 72%
    04:00 +19°C° 0 mm 1 mps 742 mmHg 72%
    05:00 +21°C° 0 mm 1 mps 742 mmHg 67%
    06:00 +23°C° 0 mm 1 mps 742 mmHg 62%
    07:00 +25°C° 0 mm 1 mps 742 mmHg 57%
    08:00 +26°C° 0 mm 2 mps 742 mmHg 50%
    09:00 +28°C° 0 mm 3 mps 743 mmHg 43%
    10:00 +29°C° 0 mm 4 mps 743 mmHg 36%
    11:00 +30°C° 0 mm 4 mps 743 mmHg 35%
    12:00 +32°C° 0 mm 4 mps 743 mmHg 33%
    13:00 +33°C° 0 mm 5 mps 743 mmHg 32%
    14:00 +32°C° 0 mm 5 mps 743 mmHg 32%
    15:00 +32°C° 0 mm 4 mps 743 mmHg 33%
    16:00 +32°C° 0 mm 4 mps 743 mmHg 34%
    17:00 +28°C° 0 mm 3 mps 743 mmHg 40%
    18:00 +26°C° 0 mm 2 mps 743 mmHg 45%
    19:00 +24°C° 0 mm 2 mps 743 mmHg 51%
    20:00 +23°C° 0 mm 1 mps 744 mmHg 52%
    21:00 +23°C° 0 mm 1 mps 744 mmHg 53%
    22:00 +22°C° 0 mm 1 mps 745 mmHg 55%
    23:00 +22°C° 0 mm 1 mps 745 mmHg 55%

    Tomorrow, 29 July, Saturday

    Time Temperature Precipitation Wind Pressure Humidity
    00:00 +22°C° 0 mm 1 mps 745 mmHg 55%
    01:00 +22°C° 0 mm 1 mps 745 mmHg 55%
    02:00 +22°C° 0 mm 1 mps 745 mmHg 55%
    03:00 +22°C° 0 mm 1 mps 745 mmHg 56%
    04:00 +20°C° 0 mm 2 mps 745 mmHg 56%
    05:00 +23°C° 0 mm 2 mps 746 mmHg 53%
    06:00 +25°C° 0 mm 1 mps 746 mmHg 49%
    07:00 +27°C° 0 mm 1 mps 746 mmHg 45%
    08:00 +30°C° 0 mm 1 mps 746 mmHg 41%
    09:00 +32°C° 0 mm 1 mps 747 mmHg 36%
    10:00 +34°C° 0 mm 1 mps 747 mmHg 32%
    11:00 +36°C° 0 mm 2 mps 747 mmHg 30%
    12:00 +36°C° 0 mm 2 mps 746 mmHg 29%
    13:00 +37°C° 0 mm 3 mps 746 mmHg 28%
    14:00 +37°C° 0 mm 3 mps 746 mmHg 29%
    15:00 +36°C° 0 mm 3 mps 746 mmHg 31%
    16:00 +36°C° 0 mm 3 mps 745 mmHg 32%
    17:00 +32°C° 0 mm 2 mps 746 mmHg 38%
    18:00 +30°C° 0 mm 2 mps 746 mmHg 45%
    19:00 +28°C° 0 mm 1 mps 746 mmHg 51%
    20:00 +27°C° 0 mm 1 mps 746 mmHg 53%
    21:00 +26°C° 0 mm 1 mps 746 mmHg 55%
    22:00 +25°C° 0 mm 1 mps 747 mmHg 57%
    23:00 +25°C° 0 mm 1 mps 747 mmHg 57%

    Day after tomorrow, 30 July, Sunday

    Time Temperature Precipitation Wind Pressure Humidity
    00:00 +25°C° 0 mm 1 mps 747 mmHg 57%
    01:00 +25°C° 0 mm 1 mps 746 mmHg 58%
    02:00 +25°C° 0 mm 1 mps 746 mmHg 58%
    03:00 +24°C° 0 mm 1 mps 746 mmHg 58%
    04:00 +24°C° 0 mm 1 mps 746 mmHg 58%
    05:00 +26°C° 0 mm 1 mps 746 mmHg 54%
    06:00 +28°C° 0 mm 1 mps 746 mmHg 50%
    07:00 +30°C° 0 mm 1 mps 746 mmHg 45%
    08:00 +32°C° 0 mm 1 mps 746 mmHg 40%
    09:00 +34°C° 0 mm 1 mps 746 mmHg 35%
    10:00 +36°C° 0 mm 1 mps 746 mmHg 30%
    11:00 +37°C° 0 mm 2 mps 746 mmHg 29%
    12:00 +38°C° 0 mm 2 mps 746 mmHg 28%
    13:00 +39°C° 0 mm 3 mps 746 mmHg 27%
    14:00 +38°C° 0 mm 3 mps 745 mmHg 30%
    15:00 +37°C° 0 mm 3 mps 745 mmHg 32%
    16:00 +37°C° 0 mm 3 mps 745 mmHg 34%
    17:00 +34°C° 0 mm 3 mps 745 mmHg 39%
    18:00 +31°C° 0 mm 2 mps 745 mmHg 44%
    19:00 +29°C° 0 mm 1 mps 745 mmHg 49%
    20:00 +28°C° 0 mm 1 mps 745 mmHg 50%
    21:00 +27°C° 0 mm 1 mps 745 mmHg 52%
    22:00 +27°C° 0 mm 1 mps 746 mmHg 54%
    23:00 +26°C° 0 mm 1 mps 745 mmHg 54%

    31 July, Monday

    Time Temperature Precipitation Wind Pressure Humidity
    00:00 +26°C° 0 mm 1 mps 745 mmHg 55%
    01:00 +26°C° 0 mm 1 mps 745 mmHg 56%
    02:00 +26°C° 0 mm 1 mps 745 mmHg 56%
    03:00 +25°C° 0 mm 1 mps 745 mmHg 57%
    04:00 +25°C° 0 mm 1 mps 745 mmHg 58%
    05:00 +27°C° 0 mm 1 mps 745 mmHg 54%
    06:00 +29°C° 0 mm 1 mps 745 mmHg 51%
    07:00 +30°C° 0 mm 1 mps 745 mmHg 47%
    08:00 +32°C° 0 mm 2 mps 745 mmHg 43%
    09:00 +35°C° 0 mm 2 mps 745 mmHg 38%
    10:00 +37°C° 0 mm 2 mps 746 mmHg 34%
    11:00 +38°C° 0 mm 3 mps 745 mmHg 33%
    12:00 +38°C° 0 mm 3 mps 745 mmHg 31%
    13:00 +40°C° 0 mm 4 mps 745 mmHg 30%
    14:00 +38°C° 0.1 mm 4 mps 744 mmHg 32%
    15:00 +37°C° 0.1 mm 3 mps 744 mmHg 35%
    16:00 +36°C° 0.1 mm 3 mps 744 mmHg 37%
    17:00 +34°C° 0.1 mm 3 mps 744 mmHg 42%
    18:00 +31°C° 0.1 mm 2 mps 744 mmHg 47%
    19:00 +29°C° 0.1 mm 1 mps 744 mmHg 52%
    20:00 +29°C° 0 mm 1 mps 745 mmHg 54%
    21:00 +28°C° 0 mm 1 mps 745 mmHg 56%
    22:00 +27°C° 0 mm 1 mps 745 mmHg 57%
    23:00 +27°C° 0 mm 2 mps 745 mmHg 58%

    1 August, Tuesday

    Time Temperature Precipitation Wind Pressure Humidity
    00:00 +27°C° 0 mm 2 mps 745 mmHg 58%
    01:00 +26°C° 0 mm 2 mps 745 mmHg 59%
    02:00 +26°C° 0 mm 2 mps 745 mmHg 59%
    03:00 +26°C° 0 mm 2 mps 745 mmHg 59%
    04:00 +25°C° 0 mm 2 mps 745 mmHg 58%
    05:00 +27°C° 0 mm 2 mps 745 mmHg 55%
    06:00 +29°C° 0 mm 1 mps 746 mmHg 51%
    07:00 +30°C° 0 mm 1 mps 746 mmHg 47%
    08:00 +32°C° 0 mm 1 mps 746 mmHg 42%
    09:00 +34°C° 0 mm 1 mps 746 mmHg 37%
    10:00 +36°C° 0 mm 1 mps 746 mmHg 31%
    11:00 +38°C° 0 mm 2 mps 745 mmHg 29%
    12:00 +38°C° 0 mm 3 mps 745 mmHg 27%
    13:00 +39°C° 0 mm 3 mps 745 mmHg 25%
    14:00 +39°C° 0 mm 3 mps 744 mmHg 26%
    15:00 +39°C° 0 mm 3 mps 744 mmHg 27%
    16:00 +38°C° 0 mm 4 mps 744 mmHg 27%
    17:00 +36°C° 0 mm 3 mps 744 mmHg 34%
    18:00 +32°C° 0 mm 2 mps 744 mmHg 40%
    19:00 +30°C° 0 mm 2 mps 745 mmHg 47%
    20:00 +29°C° 0 mm 1 mps 745 mmHg 48%
    21:00 +28°C° 0 mm 1 mps 745 mmHg 50%
    22:00 +27°C° 0 mm 1 mps 745 mmHg 51%
    23:00 +27°C° 0 mm 1 mps 745 mmHg 51%

    2 August, Wednesday

    Time Temperature Precipitation Wind Pressure Humidity
    00:00 +26°C° 0 mm 1 mps 745 mmHg 50%
    01:00 +26°C° 0 mm 1 mps 745 mmHg 49%
    02:00 +25°C° 0 mm 1 mps 745 mmHg 49%
    03:00 +25°C° 0 mm 1 mps 745 mmHg 48%
    04:00 +25°C° 0 mm 1 mps 745 mmHg 48%
    05:00 +27°C° 0 mm 1 mps 745 mmHg 45%
    06:00 +28°C° 0 mm 1 mps 745 mmHg 42%
    07:00 +30°C° 0 mm 1 mps 745 mmHg 39%
    08:00 +32°C° 0 mm 1 mps 745 mmHg 36%
    09:00 +34°C° 0 mm 1 mps 745 mmHg 32%
    10:00 +37°C° 0 mm 2 mps 745 mmHg 29%
    11:00 +37°C° 0 mm 2 mps 744 mmHg 27%
    12:00 +38°C° 0 mm 3 mps 744 mmHg 25%
    13:00 +39°C° 0 mm 3 mps 744 mmHg 23%
    14:00 +39°C° 0 mm 3 mps 744 mmHg 24%
    15:00 +38°C° 0 mm 3 mps 743 mmHg 25%
    16:00 +38°C° 0 mm 3 mps 743 mmHg 25%
    17:00 +36°C° 0 mm 3 mps 743 mmHg 32%
    18:00 +32°C° 0 mm 2 mps 743 mmHg 38%
    19:00 +29°C° 0 mm 2 mps 743 mmHg 44%
    20:00 +29°C° 0 mm 1 mps 744 mmHg 46%
    21:00 +28°C° 0 mm 1 mps 744 mmHg 47%
    22:00 +27°C° 0 mm 1 mps 744 mmHg 48%
    23:00 +26°C° 0 mm 1 mps 744 mmHg 47%
    Show more